User: anonymous   Login
Location: Fort Wayne
(41.1310°N, 85.1290°W)
Time: 20:02:01
(UTC-04:00)
Language:

Oscar 19 - Orbit

View from above orbital plane
View from above orbital plane
View from above satellite
View from above satellite

Ground track
Ground track

The orbit data is extracted from the following two-line orbital elements,

1 20442U 90005G   15181.75184953  .00000015  00000-0  21535-4 0  9990
2 20442 098.5119 117.2641 0012961 106.5711 253.6897 14.32744444328885
Epoch (UTC): 30 June 2015 18:02:39
Eccentricity: 0.0012961
inclination: 98.5119°
perigee height: 773 km
apogee height: 792 km
right ascension of ascending node: 117.2641°
argument of perigee: 106.5711°
revolutions per day: 14.32744444
mean anomaly at epoch: 253.6897°
orbit number at epoch: 32888

The dashed part of the orbit path shows where the satellite is in the earth's shadow,  

DLR